Weather in Khmilnyk

Ukraine / Vinnytsia Region     49°33′30″N   27°57′16″E
temp.,
°C
wind,
m/s
gust,
m/s
humid.,
%
clouds,
%
prec.,
mm/h
press.,
hPa
HPBL,
m
8 may, sat
sat800:00+10w2692100 0.3 1007151
03:00+9wnw41092100 0.7 1008385
06:00+8wnw81193100 0.3 1009890
09:00+7wnw81185100 1.8 10131009
12:00+6wnw9127767 0.3 10151181
15:00+8nw9146592 0.5 10171715
18:00+9nw7116254 0.2 10171717
21:00+5wnw511775 0.3 1020391
9 may, sun
sun900:00+3wnw39915 0.0 1022199
03:00+2wnw36945 0.0 1023111
06:00+1wnw35935 0.0 1025100
09:00+8wnw47660 0.0 1026707
12:00+11nw45464 0.0 10261553
15:00+13wnw34405 0.0 10262097
18:00+14w134114 0.0 10251909
21:00+8se33595 0.0 102721
10 may, mon
mon1000:00+6sse33695 0.0 102842
03:00+5sse34725 0.0 102853
06:00+5se35755 0.0 102866
09:00+11sse585838 0.0 1028464
12:00+15sse674813 0.0 10271364
15:00+17sse67465 0.0 10261492
18:00+16sse56565 0.0 10251327
21:00+10se49740 0.0 1026131
11 may, tue
tue1100:00+8se410780 0.0 1026171
03:00+6se411840 0.0 1026217
06:00+5se39820 0.0 1026155
09:00+12se57620 0.0 1025467
12:00+16ese56440 0.0 10241113
15:00+18ese45430 0.0 10231333
18:00+17e45530 0.0 10211233
21:00+11e47790 0.0 1021108
12 may, wed
wed1200:00+9e39920 0.0 1020164
03:00+8e35960 0.0 101993
06:00+9e389750 0.0 1018245
09:00+12e56740 0.0 1017668
12:00+13e566058 0.0 1015921
15:00+12ene4669100 0.0 1014680
18:00+12e7777100 0.4 1014789
21:00+8e249435 1.8 1013140